Tacoma, WA

1:42 AM PST on December 11, 2016 (GMT -0800)
McChord Air Force Base

Weather History for KTCM - March, 2015

Change the Weather History Date:

Sunday, March 15, 2015

  Actual Average Record
Temperature  
Mean Temperature 50 °F -  
Max Temperature 55 °F 51 °F 63 °F (2010)
Min Temperature 46 °F 35 °F 25 °F (1963)
Degree Days  
Heating Degree Days 14    
Moisture  
Dew Point 47 °F    
Average Humidity 96    
Maximum Humidity 100    
Minimum Humidity 82    
Precipitation  
Precipitation 1.36 in - - ()
Sea Level Pressure  
Sea Level Pressure 29.80 in    
Wind  
Wind Speed 10 mph (SSW)    
Max Wind Speed 31 mph    
Max Gust Speed 41 mph    
Visibility 8 miles    
Events Rain    
Averages and records for this station are not official NWS values.
T = Trace of Precipitation, MM = Missing Value Source: NWS Daily Summary

Daily Weather History Graph

Daily Weather History Graph

Search for Another Location

Airport or City:

Trip Planner

Search our weather history database for the weather conditions in past years. The results will help you decide how hot, cold, wet, or windy it might be!

Date:

Astronomy

Mar. 15, 2015 Rise Set
Actual Time 7:23 AM PDT 7:15 PM PDT
Civil Twilight 6:52 AM PDT 7:45 PM PDT
Nautical Twilight 6:17 AM PDT 8:21 PM PDT
Astronomical Twilight 5:40 AM PDT 8:57 PM PDT
Moon 4:06 AM PDT (3/15) 1:54 PM PDT (3/15)
Length of Visible Light 12h 53m
Length of Day
11h 52m
Waning Crescent, 28% of the Moon is Illuminated
Mar 15
Waning Crescent
Mar 20
New
Mar 27
First Quarter
Apr 4
Full
Apr 11
Last Quarter

Hourly Weather History & Observations

Time (PDT) Temp. Windchill Dew Point Humidity Pressure Visibility Wind Dir Wind Speed Gust Speed Precip Events Conditions
12:58 AM 48.6 °F - 48.6 °F 100% 29.96 in 9.0 mi Calm Calm - 0.07 in Rain Light Rain
1:58 AM 48.0 °F - 48.0 °F 100% 29.94 in 10.0 mi North - - 0.05 in Rain Light Rain
2:58 AM 47.7 °F - 47.7 °F 100% 29.90 in 9.0 mi Calm Calm - 0.05 in Rain Light Rain
3:58 AM 47.1 °F - 47.1 °F 100% 29.88 in 7.0 mi Calm Calm - 0.06 in Rain Rain
4:45 AM 46.4 °F 45.2 °F 46.4 °F 100% 29.83 in 6.0 mi Variable 3.5 mph - N/A Rain Light Rain
4:58 AM 47.1 °F - 47.1 °F 100% 29.85 in 6.0 mi Variable 3.5 mph - 0.10 in Rain Rain
5:08 AM 46.4 °F 42.9 °F 46.4 °F 100% 29.82 in 6.0 mi NNE 6.9 mph - N/A Rain Rain
5:43 AM 46.4 °F 43.5 °F 46.4 °F 100% 29.81 in 9.0 mi NNE 5.8 mph - N/A Rain Light Rain
5:58 AM 47.1 °F - 47.1 °F 100% 29.83 in 9.0 mi NE 3.5 mph - 0.07 in Rain Light Rain
6:18 AM 46.4 °F 45.2 °F 46.4 °F 100% 29.81 in 7.0 mi NE 3.5 mph - N/A Rain Light Rain
6:38 AM 46.4 °F - 46.4 °F 100% 29.80 in 6.0 mi Variable 2.3 mph - N/A Rain Rain
6:43 AM 48.2 °F - 48.2 °F 100% 29.81 in 7.0 mi Variable 2.3 mph - N/A Rain Rain
6:58 AM 47.3 °F - 47.3 °F 100% 29.83 in 7.0 mi Variable 1.2 mph - 0.08 in Rain Rain
7:48 AM 46.4 °F - 46.4 °F 100% 29.79 in 6.0 mi SSW 2.3 mph - N/A Rain Rain
7:58 AM 47.1 °F - 47.1 °F 100% 29.81 in 7.0 mi NNE 8.1 mph - 0.10 in Rain Light Rain
8:33 AM 46.4 °F 42.9 °F 46.4 °F 100% 29.78 in 8.0 mi NNE 6.9 mph - N/A Rain Light Rain
8:58 AM 46.8 °F - 46.8 °F 100% 29.78 in 6.0 mi NE 6.9 mph - 0.05 in Rain Rain
9:08 AM 46.4 °F 41.9 °F 46.4 °F 100% 29.77 in 6.0 mi NNE 9.2 mph - N/A Rain Rain
9:18 AM 46.4 °F 43.5 °F 46.4 °F 100% 29.76 in 8.0 mi NNE 5.8 mph - N/A Rain Rain
9:58 AM 46.6 °F - 46.6 °F 100% 29.80 in 5.0 mi North 5.8 mph - 0.10 in Rain Heavy Rain
10:38 AM 46.4 °F 40.7 °F 46.4 °F 100% 29.80 in 3.0 mi NNW 12.7 mph - N/A Rain Rain
10:53 AM 46.4 °F 42.9 °F 46.4 °F 100% 29.76 in 6.0 mi NNE 6.9 mph - N/A Rain Heavy Rain
10:58 AM 46.2 °F 41.7 °F 46.2 °F 100% 29.78 in 5.0 mi NNE 9.2 mph - 0.16 in Rain Heavy Rain
11:08 AM 46.4 °F 41.5 °F 46.4 °F 100% 29.74 in 6.0 mi NNE 10.4 mph - N/A Rain Heavy Rain
11:13 AM 46.4 °F 41.5 °F 46.4 °F 100% 29.73 in 8.0 mi NE 10.4 mph - N/A Rain Rain
11:28 AM 46.4 °F 40.7 °F 46.4 °F 100% 29.72 in 6.0 mi NE 12.7 mph 19.6 mph N/A Rain Heavy Rain
11:58 AM 46.0 °F 40.2 °F 46.0 °F 100% 29.71 in 6.0 mi NE 12.7 mph 18.4 mph 0.14 in Rain Heavy Rain
12:33 PM 46.4 °F 42.4 °F 46.4 °F 100% 29.67 in 6.0 mi ENE 8.1 mph - N/A Rain Rain
12:38 PM 46.4 °F 41.9 °F 46.4 °F 100% 29.66 in 5.0 mi ENE 9.2 mph - N/A Rain Light Rain
12:58 PM 46.4 °F 43.5 °F 46.4 °F 100% 29.69 in 4.0 mi Variable 5.8 mph - 0.11 in Rain Heavy Rain
1:23 PM 46.4 °F 41.5 °F 46.4 °F 100% 29.66 in 7.0 mi NNE 10.4 mph - N/A Rain Rain
1:53 PM 46.4 °F 42.9 °F 46.4 °F 100% 29.64 in 6.0 mi North 6.9 mph - N/A Rain Light Rain
1:58 PM 46.0 °F 40.2 °F 46.0 °F 100% 29.69 in 4.0 mi North 12.7 mph - 0.10 in Rain Rain
2:13 PM 46.4 °F 42.4 °F 44.6 °F 93% 29.65 in 3.0 mi WNW 8.1 mph - N/A Rain Light Rain
2:18 PM 46.4 °F 41.5 °F 46.4 °F 100% 29.66 in 2.0 mi North 10.4 mph - N/A Rain Rain
2:23 PM 46.4 °F 41.9 °F 46.4 °F 100% 29.64 in 3.0 mi NE 9.2 mph - N/A Rain Light Rain
2:28 PM 46.4 °F 42.9 °F 46.4 °F 100% 29.64 in 6.0 mi NE 6.9 mph - N/A Rain Light Rain
2:58 PM 46.4 °F 42.4 °F 46.4 °F 100% 29.64 in 10.0 mi NE 8.1 mph - 0.07 in Rain Light Rain
3:08 PM 46.4 °F 45.2 °F 46.4 °F 100% 29.61 in 5.0 mi Variable 3.5 mph - N/A Rain Light Rain
3:28 PM 46.4 °F 42.9 °F 46.4 °F 100% 29.61 in 7.0 mi ENE 6.9 mph - N/A Rain Light Rain
3:58 PM 47.1 °F - 46.9 °F 99% 29.62 in 10.0 mi ENE 4.6 mph - 0.03 in Rain Light Rain
4:13 PM 48.2 °F - 48.2 °F 100% 29.59 in 10.0 mi NE 5.8 mph - N/A   Overcast
4:18 PM 48.2 °F - 48.2 °F 100% 29.60 in 10.0 mi NNE 2.3 mph - N/A   Overcast
4:23 PM 48.2 °F - 48.2 °F 100% 29.59 in 10.0 mi Variable 3.5 mph - N/A   Overcast
4:28 PM 48.2 °F - 48.2 °F 100% 29.59 in 10.0 mi Variable 3.5 mph - N/A   Overcast
4:43 PM 48.2 °F - 48.2 °F 100% 29.60 in 10.0 mi Variable 4.6 mph - N/A   Overcast
4:58 PM 48.4 °F - 48.4 °F 100% 29.62 in 10.0 mi Variable 5.8 mph - 0.00 in   Overcast
5:05 PM 50.0 °F - 50.0 °F 100% 29.61 in 10.0 mi SSW 16.1 mph 19.6 mph N/A Rain Light Rain
5:10 PM 50.0 °F - 50.0 °F 100% 29.62 in 10.0 mi SSW 17.3 mph 27.6 mph N/A Rain Light Rain
5:15 PM 51.8 °F - 51.8 °F 100% 29.63 in 10.0 mi SW 20.7 mph 29.9 mph N/A Rain Light Rain
5:20 PM 53.6 °F - 53.6 °F 100% 29.64 in 10.0 mi SSW 24.2 mph 35.7 mph N/A Rain Light Rain
5:25 PM 55.4 °F - 53.6 °F 94% 29.64 in 10.0 mi South 31.1 mph 40.3 mph N/A Rain Light Rain
5:26 PM 55.4 °F - 53.6 °F 94% 29.65 in 10.0 mi SSW 31.1 mph 40.3 mph N/A   Overcast
5:31 PM 55.4 °F - 53.6 °F 94% 29.66 in 10.0 mi SW 28.8 mph 40.3 mph N/A   Overcast
5:36 PM 55.4 °F - 51.8 °F 88% 29.66 in 10.0 mi SW 24.2 mph 34.5 mph N/A   Overcast
5:46 PM 55.4 °F - 51.8 °F 88% 29.68 in 10.0 mi SSW 20.7 mph 39.1 mph N/A   Mostly Cloudy
5:51 PM 55.4 °F - 51.8 °F 88% 29.68 in 10.0 mi SSW 21.9 mph 34.5 mph N/A   Mostly Cloudy
5:56 PM 53.6 °F - 50.0 °F 88% 29.69 in 10.0 mi South 24.2 mph 33.4 mph N/A   Mostly Cloudy
5:58 PM 54.5 °F - 50.7 °F 87% 29.70 in 10.0 mi SSW 23.0 mph 33.4 mph 0.01 in   Mostly Cloudy
6:58 PM 51.4 °F - 46.4 °F 83% 29.80 in 10.0 mi South 26.5 mph 40.3 mph N/A   Mostly Cloudy
7:28 PM 50.0 °F - 44.6 °F 82% 29.81 in 10.0 mi South 25.3 mph 41.4 mph N/A   Overcast
7:33 PM 50.0 °F - 44.6 °F 82% 29.82 in 10.0 mi SSW 26.5 mph 40.3 mph N/A   Overcast
7:43 PM 50.0 °F - 44.6 °F 82% 29.84 in 10.0 mi South 25.3 mph 36.8 mph N/A   Overcast
7:48 PM 50.0 °F - 44.6 °F 82% 29.85 in 10.0 mi SSW 26.5 mph 36.8 mph N/A   Overcast
7:56 PM 50.0 °F - 46.4 °F 87% 29.86 in 8.0 mi SSW 24.2 mph 38.0 mph N/A Rain Light Rain
7:58 PM 50.0 °F - 46.4 °F 87% 29.88 in 8.0 mi SSW 23.0 mph 38.0 mph N/A Rain Light Rain
8:15 PM 48.2 °F - 46.4 °F 93% 29.88 in 10.0 mi SSW 23.0 mph 31.1 mph N/A   Overcast
8:25 PM 48.2 °F - 46.4 °F 93% 29.90 in 10.0 mi SSW 24.2 mph 34.5 mph N/A   Overcast
8:30 PM 48.2 °F - 46.4 °F 93% 29.90 in 10.0 mi SSW 24.2 mph 34.5 mph N/A   Overcast
8:32 PM 48.2 °F - 46.4 °F 93% 29.91 in 10.0 mi SSW 18.4 mph 34.5 mph N/A Rain Light Rain
8:42 PM 48.2 °F - 46.4 °F 93% 29.92 in 7.0 mi SW 25.3 mph 34.5 mph N/A Rain Light Rain
8:47 PM 46.4 °F 37.7 °F 46.4 °F 100% 29.93 in 7.0 mi SSW 26.5 mph 40.3 mph N/A Rain Light Rain
8:57 PM 46.4 °F 38.3 °F 44.6 °F 93% 29.94 in 10.0 mi SSW 23.0 mph 38.0 mph N/A   Light Drizzle
8:58 PM 46.6 °F - 45.3 °F 95% 29.96 in 10.0 mi SSW 23.0 mph 38.0 mph 0.01 in   Light Drizzle
9:03 PM 46.4 °F 38.3 °F 44.6 °F 93% 29.95 in 10.0 mi SSW 23.0 mph 31.1 mph N/A   Light Drizzle
9:08 PM 46.4 °F 38.3 °F 44.6 °F 93% 29.96 in 9.0 mi SSW 23.0 mph 29.9 mph N/A Rain Light Rain
9:13 PM 46.4 °F 38.1 °F 44.6 °F 93% 29.96 in 10.0 mi SW 24.2 mph 29.9 mph N/A Rain Light Rain
9:18 PM 46.4 °F 38.3 °F 44.6 °F 93% 29.97 in 10.0 mi SSW 23.0 mph 29.9 mph N/A   Overcast
9:27 PM 46.4 °F 38.7 °F 44.6 °F 93% 29.98 in 10.0 mi SW 20.7 mph 27.6 mph N/A Rain Light Rain
9:36 PM 46.4 °F 39.0 °F 44.6 °F 93% 29.99 in 10.0 mi SSW 19.6 mph 27.6 mph N/A   Overcast
9:46 PM 46.4 °F 38.3 °F 44.6 °F 93% 30.00 in 10.0 mi SSW 23.0 mph 27.6 mph N/A   Overcast
9:51 PM 46.4 °F 39.0 °F 44.6 °F 93% 30.01 in 10.0 mi SSW 19.6 mph 27.6 mph N/A   Overcast
9:56 PM 46.4 °F 39.2 °F 44.6 °F 93% 30.02 in 10.0 mi SSW 18.4 mph 27.6 mph N/A   Overcast
9:58 PM 46.4 °F 39.2 °F 44.6 °F 93% 30.04 in 10.0 mi SSW 18.4 mph - 0.00 in   Overcast
10:13 PM 46.4 °F 38.7 °F 44.6 °F 93% 30.03 in 10.0 mi SSW 20.7 mph 25.3 mph N/A   Overcast
10:28 PM 46.4 °F 39.0 °F 44.6 °F 93% 30.04 in 10.0 mi SSW 19.6 mph 27.6 mph N/A   Overcast
10:33 PM 46.4 °F 38.7 °F 44.6 °F 93% 30.05 in 10.0 mi South 20.7 mph - N/A   Overcast
10:48 PM 46.4 °F 39.5 °F 44.6 °F 93% 30.06 in 10.0 mi SSW 17.3 mph - N/A   Overcast
10:58 PM 46.0 °F 39.3 °F 44.8 °F 95% 30.09 in 10.0 mi SSW 16.1 mph - N/A   Overcast
11:03 PM 46.4 °F 39.8 °F 44.6 °F 93% 30.08 in 10.0 mi SSW 16.1 mph - N/A   Overcast
11:58 PM 46.0 °F 39.6 °F 45.1 °F 97% 30.13 in 10.0 mi SSW 15.0 mph - N/A   Overcast